Location: LDNL
(36.4545°S, 141.6685°E)
Time: 19:02:42
(UTC+10:00)

A-11 Canister half - Pass Details

Date: 01 February 2022
Orbit: 1527 x 1682 km, 47.3° (Epoch: 20 May)

Event Time Altitude Azimuth Distance (km) Brightness Sun altitude
Rises 02:01:45 0° 257° (WSW) 4,942 11.8 -36.2°
Reaches altitude 10° 02:05:12 10° 250° (WSW) 3,946 11.2 -36.1°
Maximum altitude 02:14:47 45° 179° (S) 2,149 10.0 -35.9°
Drops below altitude 10° 02:24:08 10° 108° (ESE) 3,845 11.3 -35.6°
Sets 02:27:27 0° 101° (ESE) 4,806 11.9 -35.4°
